EHI
0 0 0 0 0 0 0 0 0 0 0 0 0 0 1 2 3 5 10 15 18 20 22 25 29 32 34 36 37 37 34 32 31 27 21 17 16 16 16 14 10 7 6 6
0 0 0 0 0 0 0 0 0 0 0 0 0 0 0 1 2 4 8 13 18 20 22 26 31 34 36 37 37 36 34 32 30 27 22 17 15 15 15 13 10 7 6 5
0 0 0 0 0 0 0 0 0 0 0 0 0 0 0 0 1 3 7 13 18 19 19 24 30 35 37 37 36 34 33 33 32 29 23 17 14 13 12 11 9 7 6 5
0 0 0 0 0 0 0 0 0 0 0 0 0 0 0 0 0 2 6 12 16 17 17 19 24 28 30 32 33 32 32 33 32 29 23 17 13 11 10 10 8 7 6 4
0 0 0 0 0 0 0 0 0 0 0 0 0 0 0 0 0 1 4 9 14 16 16 16 18 19 20 23 26 28 29 29 29 27 21 16 13 11 9 8 8 7 6 4
0 0 0 0 0 0 0 0 0 0 0 0 0 0 0 0 1 1 3 8 12 14 14 14 14 14 14 16 20 24 26 26 25 22 18 14 13 11 9 8 7 7 6 5
0 0 0 0 0 0 0 0 0 0 0 0 0 0 0 1 2 3 4 6 9 11 12 14 14 13 12 13 16 21 24 24 21 17 14 12 10 10 9 8 7 6 6 6
0 0 0 0 0 0 0 0 0 0 0 0 0 0 0 1 2 3 4 4 6 7 9 11 13 13 12 12 14 18 21 21 17 12 9 8 7 7 6 6 6 6 6 6
0 0 0 0 0 0 0 0 0 0 0 0 0 0 0 0 1 3 3 3 4 4 6 7 9 10 11 12 13 14 17 16 13 9 5 4 4 3 2 3 5 6 6 6
0 0 0 0 0 0 0 0 0 0 0 0 0 0 0 0 0 1 2 3 3 3 4 5 6 8 10 13 13 13 14 13 10 6 4 3 3 1 0 1 3 3 3 4
0 0 0 0 0 0 0 0 0 0 0 0 0 0 0 0 0 0 1 2 3 3 2 4 6 7 8 11 13 13 13 11 8 5 4 3 2 1 0 0 1 1 1 2
0 0 0 0 0 0 0 0 0 0 0 0 0 0 0 0 0 0 0 1 2 2 2 4 7 7 6 9 11 11 10 8 7 6 4 3 1 0 0 0 0 0 0 1
0 0 0 0 0 0 0 0 0 0 0 0 0 0 0 0 0 0 0 0 1 2 1 3 5 5 4 5 7 7 6 6 6 5 3 2 1 0 0 0 0 0 0 0
0 0 0 0 0 0 0 0 0 0 0 0 0 0 0 0 0 0 0 0 1 1 0 1 3 3 3 4 4 4 2 3 5 4 2 1 0 0 0 0 0 0 0 0
0 0 0 0 0 0 0 0 0 0 0 0 0 0 0 0 0 0 0 0 0 0 0 1 2 3 3 3 2 1 1 1 2 2 1 0 0 0 0 0 0 0 0 0
0 0 0 0 0 0 0 0 0 0 0 0 0 0 0 0 0 0 0 0 0 0 0 0 1 2 3 2 1 0 0 0 1 1 0 0 0 0 0 0 0 0 0 0
0 0 0 0 0 0 0 0 0 0 0 0 0 0 0 0 0 0 0 0 0 1 1 0 1 1 1 1 0 0 0 1 1 0 0 0 0 0 0 0 0 0 0 0
0 0 0 0 0 0 0 0 0 0 0 0 0 0 0 0 1 1 0 0 1 2 2 1 0 0 0 0 0 0 0 1 1 0 0 0 0 0 0 0 0 0 0 0
0 0 0 0 0 0 0 0 0 0 0 0 0 0 0 0 1 1 0 0 2 3 2 1 0 0 0 0 0 0 0 0 0 0 0 0 0 0 0 0 0 0 0 0
0 0 0 0 0 0 0 0 0 0 0 0 0 0 0 0 1 1 0 0 1 2 2 1 0 0 0 0 0 0 0 0 0 0 0 0 0 0 0 0 0 0 0 0
0 0 0 0 0 0 0 0 0 0 0 0 0 0 0 0 0 0 0 0 0 1 1 0 0 0 0 0 0 0 0 0 0 0 0 0 0 0 0 0 0 0 0 0
0 0 0 0 0 0 0 0 0 0 0 0 0 0 0 0 0 0 0 0 0 0 0 0 0 0 0 0 0 0 0 0 0 0 0 0 0 0 0 0 0 0 0 0
0 0 0 0 0 0 0 0 0 0 0 0 0 1 1 0 0 0 0 0 0 0 0 0 0 0 0 0 0 0 0 0 0 0 0 0 0 0 0 0 0 0 0 0
0 0 0 0 0 0 0 0 0 0 0 0 0 1 1 0 0 0 0 0 0 0 0 0 0 0 0 0 0 0 0 0 0 0 0 0 0 0 0 0 0 0 0 0
0 0 0 0 0 0 0 0 0 0 0 0 0 0 0 0 0 0 0 0 0 0 0 0 0 0 0 0 0 0 0 0 0 0 0 0 0 0 0 0 0 0 0 0
0 0 0 0 0 0 0 0 0 0 0 0 0 0 0 0 0 0 0 0 0 0 0 0 0 0 0 0 0 0 0 0 0 0 0 0 0 0 0 0 0 0 0 0
Wind_Speed
1 3 3 6 5 5 4 2 4 5 4 1 1 3 3 2 3 4 4 5 6 6 4 3 4 5 5 4 5 6 6 5 4 3 3 2 2 1 1 1 1 1 1 1
4 4 9 6 2 1 0 1 3 4 4 0 0 2 2 1 3 4 5 5 6 4 3 4 4 5 5 5 4 5 5 5 5 3 2 2 2 2 2 1 1 2 2 2
4 7 4 0 3 3 2 2 3 4 3 2 1 3 1 1 2 2 3 4 4 6 6 5 5 4 5 5 5 4 4 5 4 4 2 2 2 1 1 0 1 2 3 2
3 4 2 1 3 1 3 4 3 2 1 2 1 2 4 1 0 1 3 4 4 4 4 4 4 4 4 5 4 5 4 5 4 5 4 4 3 2 2 2 2 2 2 2
4 3 1 2 4 2 3 2 1 1 1 2 3 1 5 2 1 3 3 4 5 5 6 6 5 5 4 4 3 3 3 3 4 4 4 4 2 2 1 1 1 2 1 1
4 2 0 1 3 1 0 4 5 5 5 3 3 1 4 2 3 2 1 2 3 4 4 3 2 2 2 2 2 3 3 3 3 3 4 4 4 3 2 2 2 2 1 2
8 6 4 2 5 6 5 6 5 6 5 2 3 1 4 4 2 1 2 2 2 2 3 3 2 2 2 2 3 3 4 3 3 3 3 4 4 4 4 4 3 2 1 2
5 7 6 5 2 1 2 4 4 2 2 3 4 1 4 2 1 3 3 2 2 2 2 3 3 3 3 3 3 4 5 4 3 3 2 3 4 3 3 4 3 3 3 3
2 5 6 7 5 2 3 2 2 4 0 1 3 3 4 3 2 2 3 3 2 2 3 4 4 3 3 4 3 5 5 4 3 3 3 2 3 3 3 3 3 2 2 2
1 4 6 6 6 7 3 2 5 4 2 2 3 2 2 4 3 2 2 1 1 2 2 3 3 3 3 3 3 3 4 4 3 3 3 2 2 2 3 2 3 3 3 2
3 1 6 6 4 4 5 5 4 3 2 2 2 4 3 3 1 1 2 1 1 2 3 3 3 2 2 2 2 3 3 2 2 2 2 1 1 1 1 2 2 2 2 2
2 3 3 5 4 2 3 2 3 2 1 1 2 5 3 2 1 1 1 1 1 1 1 2 2 3 3 3 2 2 2 2 2 2 2 1 1 1 1 2 2 2 2 3
3 4 5 9 9 9 6 5 2 2 3 1 0 5 4 4 3 2 1 0 0 0 1 2 2 2 3 3 2 2 2 1 1 2 2 1 1 1 1 2 2 2 2 3
4 3 3 2 5 5 5 7 5 3 2 1 2 4 5 5 4 3 1 1 1 1 2 2 2 2 2 3 3 2 1 1 1 1 1 1 2 2 2 2 2 2 2 2
5 2 2 3 3 2 4 7 6 3 1 1 3 1 3 4 3 2 1 1 2 2 2 2 2 2 3 2 2 2 1 1 1 1 1 2 2 2 2 2 2 2 2 2
4 1 2 3 3 3 5 7 6 5 3 3 3 2 4 4 3 3 2 2 1 1 1 1 3 3 3 3 2 2 1 1 1 1 2 2 1 2 2 2 2 2 2 2
2 2 2 3 5 4 5 5 4 3 4 2 1 2 4 4 4 3 1 1 1 1 1 1 2 3 3 3 3 2 2 1 1 1 2 2 2 2 2 3 2 2 2 2
2 1 1 1 4 2 4 3 3 3 4 4 3 3 3 3 3 3 1 0 2 1 1 1 1 2 2 2 1 1 1 1 1 1 2 2 2 2 2 2 2 2 2 2
3 4 2 1 1 2 3 5 4 1 1 3 3 4 5 4 5 4 3 2 2 2 1 2 2 2 2 1 1 2 1 1 1 1 2 2 2 2 2 2 2 2 2 2
4 4 3 1 0 2 3 6 5 2 1 4 2 1 3 3 3 4 5 2 1 0 1 1 1 1 2 1 2 2 1 1 1 2 2 2 1 1 2 2 2 2 1 2
4 3 2 1 2 3 4 5 4 3 5 5 3 2 2 1 4 5 4 2 0 1 1 1 1 2 2 2 2 2 1 1 2 2 1 1 1 1 1 1 1 1 1 1
0 0 1 0 0 4 5 4 2 4 5 3 3 3 2 2 2 2 1 2 1 1 1 1 1 1 1 2 3 2 1 2 1 0 1 1 1 1 1 1 2 1 1 1
0 3 3 4 5 5 2 1 3 2 2 3 2 3 2 2 2 1 0 1 1 0 0 0 2 2 1 1 3 2 1 0 1 1 1 1 2 2 1 1 1 2 1 1
4 1 0 2 4 4 4 2 2 2 2 4 3 2 1 1 1 0 0 0 0 0 0 0 2 2 1 0 1 2 1 1 2 1 1 1 2 3 3 2 1 1 1 1
5 2 2 4 5 4 3 2 3 4 3 4 4 2 2 1 1 1 1 1 1 1 1 1 2 2 1 1 1 1 1 2 1 1 1 1 1 1 2 2 2 1 1 1
4 4 4 6 6 3 6 5 3 3 4 4 4 4 3 1 1 1 1 1 1 1 1 1 1 1 1 1 0 1 0 1 1 1 1 1 1 1 1 1 3 4 2 2
Wind_Direction
286 68 264 249 217 212 238 281 295 283 272 109 160 239 255 174 129 139 151 155 164 162 170 155 143 134 127 129 143 151 142 144 137 136 137 138 151 166 167 175 169 152 168 158
23 274 246 244 268 302 267 0 317 302 299 327 121 275 285 162 153 162 162 165 169 158 146 143 138 135 135 136 145 147 143 146 152 157 168 168 166 181 189 188 185 192 200 203
211 252 257 284 328 320 286 217 257 276 334 20 56 339 336 0 120 129 156 168 170 165 164 162 157 150 139 149 160 160 160 156 158 154 133 105 78 60 50 204 227 219 205 206
277 277 326 339 299 277 283 254 245 253 47 303 86 283 293 281 339 204 203 182 175 172 149 154 154 155 165 174 165 156 165 162 159 156 153 153 154 180 217 216 229 246 229 217
289 303 321 324 294 295 250 270 284 274 125 31 8 72 300 350 335 260 233 185 170 164 158 162 171 175 175 170 158 156 158 159 160 163 166 163 170 194 212 223 229 260 266 235
292 319 56 274 306 342 45 32 19 34 58 39 315 121 292 295 268 268 227 167 160 154 155 158 161 149 147 146 147 148 151 165 166 172 179 179 185 189 184 222 227 248 269 265
341 340 348 7 2 354 29 59 25 6 15 287 316 80 261 284 298 119 146 157 160 157 156 153 153 148 151 166 169 164 161 175 182 181 189 193 195 192 200 213 216 223 241 257
2 327 335 346 348 300 336 108 139 190 243 286 335 302 269 302 8 71 108 117 113 144 175 177 187 178 166 175 170 169 175 184 187 188 198 202 204 199 210 211 209 216 226 236
3 301 315 343 352 80 35 20 154 134 102 357 307 305 314 346 24 51 67 89 114 183 202 202 200 187 179 174 180 179 172 174 182 187 187 203 209 202 213 219 220 228 236 239
65 306 316 336 19 23 86 100 63 73 81 335 316 313 282 302 313 9 44 83 201 218 210 202 194 186 185 175 176 171 167 176 188 186 188 199 211 213 211 212 223 233 242 245
41 30 322 357 14 348 13 28 61 77 130 145 281 281 273 250 248 278 277 261 255 232 219 201 194 194 175 149 144 149 155 158 166 175 170 171 211 212 213 226 241 235 240 250
9 87 326 305 306 22 61 51 100 112 275 176 190 270 317 298 260 194 248 279 285 270 239 187 165 147 131 121 121 125 140 148 164 160 146 166 207 211 242 268 263 245 248 256
19 63 11 348 350 3 11 4 29 119 116 131 209 278 329 360 359 358 6 284 278 215 150 112 112 130 136 137 137 138 149 163 161 145 145 174 218 237 260 269 270 263 260 272
72 79 134 213 267 303 334 351 359 49 93 248 252 272 326 340 338 337 12 42 62 82 126 118 102 113 130 135 136 141 152 176 159 146 153 200 236 249 258 267 272 271 269 274
66 56 304 279 280 332 6 349 351 7 180 174 278 257 308 306 297 296 14 66 49 43 65 120 131 139 138 132 130 142 155 188 165 140 185 241 250 257 265 275 283 284 281 279
43 47 349 349 350 358 6 357 4 22 40 61 49 358 317 317 344 4 29 67 43 7 29 147 154 153 154 162 169 167 177 197 148 156 221 248 251 258 268 275 277 283 285 287
1 66 35 310 317 4 5 346 17 46 43 64 38 296 324 349 343 322 312 340 292 267 260 184 174 175 186 191 179 179 190 176 157 200 243 253 246 250 260 271 280 285 280 283
174 101 117 322 14 24 263 328 35 61 50 46 45 357 342 329 305 292 289 243 282 277 249 244 195 178 193 193 185 175 153 156 182 217 245 254 247 253 268 280 279 274 270 272
169 142 107 74 356 280 311 346 347 333 0 21 42 10 350 358 12 344 322 322 247 237 209 206 194 176 177 172 162 130 126 161 208 246 253 258 248 250 275 285 282 274 270 285
49 88 101 88 155 266 285 318 329 63 338 325 5 356 336 17 13 306 312 324 299 347 154 156 148 128 152 184 145 129 150 181 240 251 253 257 238 230 263 275 281 273 261 274
8 19 66 163 231 265 292 326 14 53 279 298 309 294 299 250 224 258 292 314 306 107 127 117 128 154 195 191 142 138 156 235 253 262 271 318 316 276 260 284 294 294 306 334
238 31 311 75 292 271 317 9 27 253 267 282 289 291 295 271 259 250 293 311 299 72 56 93 128 171 201 159 132 133 226 256 266 4 11 319 300 295 333 9 339 346 11 349
285 200 202 198 222 247 292 253 255 225 274 286 283 280 271 276 272 275 240 288 259 152 12 99 132 131 107 133 132 137 248 252 70 50 9 333 327 334 353 26 348 344 345 335
296 319 97 290 270 287 293 291 317 318 292 294 283 274 278 265 249 247 215 285 243 273 237 149 126 118 126 195 139 159 191 95 88 58 5 359 2 351 357 5 2 345 328 338
258 299 303 279 282 316 317 305 299 314 318 317 311 290 262 243 223 185 186 206 211 233 262 158 142 149 198 207 188 195 153 102 84 49 2 356 359 4 5 356 349 327 262 196
233 208 206 240 247 246 277 291 302 306 305 303 309 315 314 221 188 167 195 234 207 195 179 138 145 164 190 157 175 227 170 122 113 33 358 343 350 2 19 17 9 16 19 27